Regional Weather Roundup
Issued by NWS

Home | Current Version | Previous Version | Text Only | Print | Product List | Glossary On
Versions: 1 2 3 4 5 6 7 8 9 10 11 12 13 14 15 16 17 18 19 20 21 22 23 24 25 26 27 28 29 30 31 32 33 34 35 36 37 38 39 40 41 42 43 44 45 46 47 48 49 50
000
ASUS42 KTBW 300217
RWRFL
FLORIDA REGIONAL WEATHER ROUNDUP
NATIONAL WEATHER SERVICE TAMPA BAY RUSKIN FL
1000 PM EDT SAT APR 29 2017

NOTE: "FAIR" INDICATES FEW OR NO CLOUDS BELOW 12,000 FEET WITH NO
SIGNIFICANT WEATHER AND/OR OBSTRUCTIONS TO VISIBILITY.

FLZ001>010-012>015-112-114-115-300300-
PANHANDLE FLORIDA

CITY           SKY/WX    TMP DP  RH WIND       PRES   REMARKS
PENSACOLA      CLOUDY    77  72  84 SE17      30.00F
PENSACOLA NAS  CLOUDY    77  72  84 SE18G25   29.99F
MILTON NAS     LGT RAIN  76  72  87 SE15G23   30.00
CRESTVIEW      PTCLDY    75  70  84 SE8       30.03F
DUKE FIELD     FAIR      75  70  85 SE10      30.01F
VALPARAISO     PTCLDY    75  71  87 SE12      30.03S
MARY ESTHER    PTCLDY    75  71  86 SE9       30.01
PANAMA CITY    FAIR      77  68  73 SE7       30.04F
TYNDALL AFB    PTCLDY    77  69  77 SE8       30.05S
APALACHICOLA   PTCLDY    75  71  87 SW3       30.04F

STATION/POSITION SKY/WX   TEMP    WIND        PRES    WAVE   SWELL
                          AIR SEA DIR/SP/G            HT/PER HT/PER
                          (F)     (DEG/KT/KT) (MB)    (FT/S) (FT/S)
30.1N   87.6W              76 75  130/ 19/ 21 1014.7    6/ 7
29.2N   88.2W              77 76  120/ 17/ 25 1014.0
28.8N   86.0W              76 74  140/ 14/ 16 1016.2    6/ 8   3/ 8
PANAMA CITY BEAC           77 78  140/ 13/ 15 1017.7S
TOWER C                    77     160/ 13/ 14 1017.5R
28.5N   84.5W              75 75  140/  4/  6 1017.0    4/ 7   3/ 7

$$
FLZ011-016>038-118-127-128-134-139-239-300300-
NORTH FLORIDA

CITY           SKY/WX    TMP DP  RH WIND       PRES   REMARKS
MARIANNA       CLEAR     76  70  82 CALM      30.05S
TALLAHASSEE    PTCLDY    73  68  84 CALM      30.06R
PERRY          MOCLDY    76  70  79 CALM      30.08R
CROSS CITY     CLOUDY    79  72  78 N3        30.08R
LAKE CITY      FAIR      75  64  69 E5        30.11R
GAINESVILLE    CLOUDY    76  66  71 E9        30.11R
WILLISTON      CLEAR     82  64  54 E9        30.10R
PALATKA        FAIR      75  72  88 SE12      30.14R
MAYPORT NAS    PTCLDY    72  72 100 SE17G24   30.14S
JACKSONVILLE   MOCLDY    76  71  85 SE14G22   30.13R
JAX NAS        MOCLDY    77  71  82 SE15      30.14R
FERNANDINA BEA FAIR      79  72  78 SE13      30.13S
ST AUGUSTINE   CLEAR     75  71  87 SE14      30.16R

STATION/POSITION SKY/WX   TEMP    WIND        PRES    WAVE   SWELL
                          AIR SEA DIR/SP/G            HT/PER HT/PER
                          (F)     (DEG/KT/KT) (MB)    (FT/S) (FT/S)
SHELL POINT      NOT AVBL
KEATON BEACH               79      10/  2/  3 1017.6S
CEDAR KEY                  81      10/  3/  4 1018.0S
FERNANDINA                 76 79  120/  6/  9 1021.5R
30.7N   81.3W                 75                N/A     3/ 5
MAYPORT                    76 78  140/ 10/ 15 1021.0S
31.4N   80.9W              75 75  150/ 10/ 12 1021.0    3/ 6   2/ 6
ST AUGUSTINE               76 78  130/ 16/ 17 1021.5R

$$
FLZ040-043>046-052-053-057-058-063-144-300300-
INTERIOR CENTRAL FLORIDA

CITY           SKY/WX    TMP DP  RH WIND       PRES   REMARKS
OCALA          MOCLDY    79  63  57 E5        30.11R
THE VILLAGES     N/A     79  68  69 MISG      30.02R
LEESBURG       CLEAR     79  69  71 SE16G23   30.13R
SANFORD        CLEAR     76  69  79 SE10      30.14R
ORLANDO EXEC   CLEAR     76  69  79 SE13      30.14R
ORLANDO INTL   PTCLDY    75  71  87 E13       30.14R
KISSIMMEE      CLEAR     77  71  82 E13       30.14R
WINTER HAVEN   CLEAR     78  64  61 E13       30.13R
LAKELAND       PTCLDY    79  64  61 E14G21    30.11R
BARTOW         FAIR      77  64  65 E10G18    30.12R
OKEECHOBEE     CLEAR     73  68  83 E5        30.13S

$$
FLZ041-047-054-059-064-141-147-300300-
EAST CENTRAL FLORIDA

CITY           SKY/WX    TMP DP  RH WIND       PRES   REMARKS
DAYTONA BEACH  PTCLDY    76  71  85 E6        30.14S
DELAND         CLEAR     75  70  83 SE9       30.14R
NEW SMYRNA BEA PTCLDY    75  72  88 SE16      30.16R
JFK SPACE CTR  CLEAR     76  71  83 SE8       30.14R
PATRICK AFB    CLEAR     78  73  84 SE17      30.13S
MELBOURNE      PTCLDY    79  72  79 E14       30.13S
VERO BEACH     PTCLDY    77  74  90 E10       30.14R
FT PIERCE      PTCLDY    79  74  84 E12       30.13S

STATION/POSITION SKY/WX   TEMP    WIND        PRES    WAVE   SWELL
                          AIR SEA DIR/SP/G            HT/PER HT/PER
                          (F)     (DEG/KT/KT) (MB)    (FT/S) (FT/S)
28.5N   80.2W              78 77  110/ 16/ 17 1021.7
28.9N   78.5W              78 78  110/ 14/ 17 1022.0
TRIDENT PIER               77 80  100/  9/ 15 1022.2S
28.4N   80.5W                 78                N/A     3/ 5
27.5N   80.2W                 77                N/A     4/ 5

$$
FLZ050-056-061-142-242-148-248-149-249-151-251-155-255-
160-260-300300-
WEST CENTRAL FLORIDA

CITY           SKY/WX    TMP DP  RH WIND       PRES   REMARKS
CRYSTAL RIVER  FAIR      81  64  57 E7G16     30.09R
INVERNESS      FAIR      79  68  69 E5        30.11R
BROOKSVILLE    PTCLDY    82  64  54 E12G17    30.10R
CLEARWATER AIR FAIR      79  70  73 CALM      30.08R
ST PETE CLEARW CLEAR     81  66  60 SE12G17   30.08R
TAMPA INTL     PTCLDY    85  62  46 E10G18    30.09R
TAMPA EXEC     CLEAR     82  63  51 E8        30.09R
PLANT CITY     CLEAR     81  66  61 E10G16    30.12R
MACDILL AFB    PTCLDY    81  66  60 SE13      30.08R
PETER O KNIGHT CLEAR     84  64  51 SE8       30.09R
ST PETERSBURG  CLEAR     82  67  60 SE14      30.07R
SARASOTA       PTCLDY    81  61  50 SE16      30.07R
VENICE         FAIR      82  66  57 E14G20    30.08R

STATION/POSITION SKY/WX   TEMP    WIND        PRES    WAVE   SWELL
                          AIR SEA DIR/SP/G            HT/PER HT/PER
                          (F)     (DEG/KT/KT) (MB)    (FT/S) (FT/S)
27.3N   84.2W                 75                N/A     5/ 6
CLEARWATER BEACH           80 80  240/  1/  2 1018.7R
MIDDLE TAMPA BAY           81     140/ 16/ 18 1018.6R
VENICE                     81 81  110/  4/  9 1017.5R

$$
FLZ066-069-070-075>078-162-262-165-265-300300-
SOUTHWEST FLORIDA AND KEYS

CITY           SKY/WX    TMP DP  RH WIND       PRES   REMARKS
PUNTA GORDA    CLEAR     79  66  64 E13       30.10R
FT MYERS       CLEAR     79  69  71 E12       30.07R
SOUTHWEST INTL CLEAR     78  67  68 E10       30.08R
NAPLES         CLEAR     80  67  64 E10       30.07R
MARCO ISLAND   PTCLDY    77  66  69 E8        30.08R
IMMOKALEE      FAIR      77  70  78 E10       30.09R
MARATHON       CLEAR     81  74  79 E12G24    30.06R
KEY WEST NAS   PTCLDY    80  74  81 E26       30.04R
KEY WEST INTL  PTCLDY    80  74  81 E22G30    30.05R

STATION/POSITION SKY/WX   TEMP    WIND        PRES    WAVE   SWELL
                          AIR SEA DIR/SP/G            HT/PER HT/PER
                          (F)     (DEG/KT/KT) (MB)    (FT/S) (FT/S)
NAPLES                        80  100/  7/ 16 1018.1R
26.0N   85.6W              80     120/ 19/ 27 1014.6
DRY TORTUGAS               80     110/ 25/ 30 1015.8R
SAND KEY                   79     100/ 25/ 29 1016.9
LONG KEY                   80 82  120/ 16/ 17 1018.1R
MOLASSES REEF              79 80   90/ 11/ 12 1018.6R

$$
FLZ067-068-071>074-168-172>174-300300-
SOUTHEAST FLORIDA

CITY           SKY/WX    TMP DP  RH WIND       PRES   REMARKS
W PALM BEACH   MOCLDY    79  69  71 E17       30.13R
BOCA RATON     MOCLDY    79  72  78 E16G22    30.12R
FT LAUDER-EXEC PTCLDY    81  70  69 E18       30.11R
FT LAUDERDALE  MOCLDY    79  72  79 E18       30.10R
POMPANO BEACH  PTCLDY    79  72  79 E15       30.12R
PEMBROKE PINES MOCLDY    80  72  76 E14       30.13R
OPA LOCKA      MOCLDY    78  70  76 E17G23    30.11R
MIAMI          MOCLDY    81  71  71 E17       30.11R
WEST KENDALL   CLOUDY    79  72  79 E17G25    30.10R
HOMESTEAD      MOCLDY    77  77 100 E10       30.09R

STATION/POSITION SKY/WX   TEMP    WIND        PRES    WAVE   SWELL
                          AIR SEA DIR/SP/G            HT/PER HT/PER
                          (F)     (DEG/KT/KT) (MB)    (FT/S) (FT/S)
PORT EVERGLADES            79      90/ 11/ 17 1019.6R
VIRGINIA KEY               80 82   80/ 17/ 20 1018.6R
LAKE WORTH                 78 80  120/ 17/ 20 1021.1R
FOWEY ROCKS                79 79   80/ 24/ 26 1019.1R
SETTLEMENT POINT           78     110/ 17/ 22 1020.3R

$$




USA.gov is the U.S. government's official web portal to all federal, state and local government web resources and services.